Tracking 30995 objects as of 5-Jul-2025
HD Live streaming from Space Station
objects crossing your sky now

FENGYUN 1C DEB

Track FENGYUN 1C DEB now!
10-day predictions


NORAD ID: 32114
Int'l Code: 1999-025CRG
Perigee: 630.1 km
Apogee: 702.1 km
Inclination: 99.9 °
Period: 97.9 minutes
Semi major axis: 7037 km
RCS: 0.0153 m2 (small)
Launch date: May 10, 1999
Source: People's Republic of China (PRC)
Launch site: Taiyaun Space Center, China (TSC)

Note: This is SATELLITE DEBRIS
Your satellite tracking list
PHOBOS-GRUNT
SUOMI NPP
Track 2 satellite(s)




NASA's NSSDC Master Catalog

Two Line Element Set (TLE):
1 32114U 99025CRG 25183.43823624  .00008712  00000-0  14118-2 0  9992
2 32114  99.9278 264.4293 0051157 120.1783 240.4499 14.70675792946120
Source of the keplerian elements: AFSPC